TRA74T EHRD-LDDU

Flight info

Callsign TRA74T
Flight time 1h 56m
Altitude 37000
Route LUNIX Z739 MISGO DCT DOJOH DCT DODEN DCT NEGIX DCT DINKU M867 XERUM DCT BAVAX DCT RADIZ DCT EVAXI DCT DARZA DCT DEPET DCT UNIPA DCT SIPAL SIPAL1A
Aircraft B738/M-SDE2E3FGHIJ1RWXYZ/LB1

Departure

Time 2026-04-29 09:02
Airport Rotterdam The Hague Airport (EHRD)

Arrival

Time 2026-04-29 10:59
Airport Dubrovnik Ruđer Bošković Airport (LDDU)
Time Latitude Longitude Altitude Speed Heading
2026-04-29 08:41 51.95189 4.43405 0 ft 0 kts 327°
2026-04-29 08:58 51.95200 4.43394 0 ft 6 kts 327°
2026-04-29 08:58 51.95211 4.43318 0 ft 9 kts 243°
2026-04-29 08:59 51.95176 4.43231 0 ft 9 kts 238°
2026-04-29 08:59 51.95146 4.43143 0 ft 9 kts 242°
2026-04-29 08:59 51.95119 4.43056 1 ft 9 kts 244°
2026-04-29 08:59 51.95113 4.42964 0 ft 8 kts 294°
2026-04-29 09:00 51.95156 4.42903 1 ft 8 kts 326°
2026-04-29 09:00 51.95203 4.42858 1 ft 8 kts 344°
2026-04-29 09:00 51.95229 4.42875 3 ft 2 kts 50°
2026-04-29 09:00 51.95231 4.42881 1 ft 0 kts 56°
2026-04-29 09:01 51.95241 4.42905 1 ft 11 kts 57°
2026-04-29 09:02 51.95431 4.43379 -1 ft 89 kts 57°
2026-04-29 09:02 51.95892 4.44540 18 ft 152 kts 58°
2026-04-29 09:02 51.96471 4.45999 772 ft 152 kts 57°
2026-04-29 09:02 51.97044 4.47435 1630 ft 156 kts 60°
2026-04-29 09:03 51.97638 4.49055 2203 ft 181 kts 61°
2026-04-29 09:03 51.98297 4.50923 2714 ft 199 kts 63°
2026-04-29 09:03 51.98983 4.52962 3245 ft 215 kts 64°
2026-04-29 09:03 51.99718 4.55230 3740 ft 235 kts 65°
2026-04-29 09:04 52.00429 4.57641 4624 ft 238 kts 75°
2026-04-29 09:04 52.00488 4.60329 5531 ft 243 kts 96°
2026-04-29 09:04 52.00234 4.63087 6385 ft 250 kts 97°
2026-04-29 09:04 51.99945 4.65889 7293 ft 253 kts 98°
2026-04-29 09:05 51.99631 4.68726 8172 ft 257 kts 98°
2026-04-29 09:05 51.99318 4.71611 9021 ft 263 kts 98°
2026-04-29 09:05 51.99007 4.74567 9805 ft 268 kts 97°
2026-04-29 09:05 51.98696 4.77575 10641 ft 272 kts 97°
2026-04-29 09:06 51.98386 4.80629 11431 ft 277 kts 97°
2026-04-29 09:06 51.98074 4.83749 12175 ft 284 kts 97°
2026-04-29 09:06 51.97759 4.86938 12916 ft 288 kts 96°
2026-04-29 09:06 51.97442 4.90155 13748 ft 290 kts 96°
2026-04-29 09:07 51.97122 4.93395 14547 ft 292 kts 96°
2026-04-29 09:07 51.96797 4.96698 15052 ft 306 kts 96°
2026-04-29 09:07 51.96453 5.00221 15386 ft 323 kts 96°
2026-04-29 09:07 51.96096 5.03858 16028 ft 329 kts 96°
2026-04-29 09:08 51.95733 5.07533 16801 ft 331 kts 96°
2026-04-29 09:08 51.95367 5.11229 17501 ft 334 kts 96°
2026-04-29 09:08 51.94996 5.14966 18184 ft 338 kts 96°
2026-04-29 09:08 51.94621 5.18740 18866 ft 341 kts 96°
2026-04-29 09:09 51.94241 5.22542 19540 ft 343 kts 95°
2026-04-29 09:09 51.93857 5.26371 20208 ft 345 kts 96°
2026-04-29 09:09 51.93469 5.30228 20850 ft 348 kts 96°
2026-04-29 09:09 51.93078 5.34111 21467 ft 351 kts 95°
2026-04-29 09:10 51.92683 5.38020 22087 ft 352 kts 95°
2026-04-29 09:10 51.92284 5.41948 22690 ft 354 kts 96°
2026-04-29 09:10 51.91882 5.45896 23265 ft 357 kts 95°
2026-04-29 09:10 51.91475 5.49876 23821 ft 359 kts 95°
2026-04-29 09:11 51.91065 5.53875 24392 ft 361 kts 95°
2026-04-29 09:11 51.90651 5.57893 24956 ft 362 kts 95°
2026-04-29 09:11 51.90235 5.61915 25492 ft 363 kts 95°
2026-04-29 09:11 51.89814 5.65984 25851 ft 370 kts 95°
2026-04-29 09:12 51.89386 5.70116 26242 ft 374 kts 95°
2026-04-29 09:12 51.88952 5.74279 26753 ft 375 kts 95°
2026-04-29 09:12 51.88515 5.78445 27258 ft 376 kts 95°
2026-04-29 09:12 51.88075 5.82625 27705 ft 378 kts 94°
2026-04-29 09:13 51.87631 5.86832 28140 ft 380 kts 94°
2026-04-29 09:13 51.87185 5.91054 28584 ft 381 kts 94°
2026-04-29 09:13 51.86735 5.95291 29008 ft 383 kts 94°
2026-04-29 09:13 51.86277 5.99545 29414 ft 385 kts 95°
2026-04-29 09:14 51.85514 6.03748 29771 ft 395 kts 106°
2026-04-29 09:14 51.84288 6.07775 30137 ft 404 kts 114°
2026-04-29 09:14 51.82650 6.11529 30478 ft 415 kts 123°
2026-04-29 09:14 51.80713 6.15012 30826 ft 418 kts 125°
2026-04-29 09:15 51.78749 6.18488 31147 ft 420 kts 125°
2026-04-29 09:15 51.76796 6.22000 31443 ft 421 kts 124°
2026-04-29 09:15 51.74845 6.25550 31703 ft 424 kts 124°
2026-04-29 09:15 51.72890 6.29124 32010 ft 425 kts 124°
2026-04-29 09:16 51.70927 6.32712 32292 ft 427 kts 124°
2026-04-29 09:16 51.68957 6.36308 32578 ft 429 kts 124°
2026-04-29 09:16 51.66976 6.39915 32848 ft 431 kts 124°
2026-04-29 09:16 51.64986 6.43531 33141 ft 431 kts 124°
2026-04-29 09:17 51.63670 6.45914 33386 ft 430 kts 124°
2026-04-29 09:17 51.61041 6.50670 33901 ft 428 kts 124°
2026-04-29 09:17 51.59065 6.54240 34240 ft 427 kts 125°
2026-04-29 09:17 51.57085 6.57817 34472 ft 429 kts 125°
2026-04-29 09:18 51.55094 6.61413 34645 ft 432 kts 125°
2026-04-29 09:18 51.53090 6.65026 34901 ft 433 kts 126°
2026-04-29 09:18 51.51083 6.68637 35185 ft 433 kts 126°
2026-04-29 09:18 51.49075 6.72246 35412 ft 435 kts 126°
2026-04-29 09:19 51.47713 6.74692 35555 ft 436 kts 126°
2026-04-29 09:19 51.45687 6.78323 35763 ft 437 kts 126°
2026-04-29 09:19 51.43657 6.81957 36009 ft 438 kts 127°
2026-04-29 09:19 51.41625 6.85589 36255 ft 438 kts 127°
2026-04-29 09:20 51.39555 6.89191 36441 ft 441 kts 129°
2026-04-29 09:20 51.37381 6.92679 36610 ft 444 kts 131°
2026-04-29 09:20 51.35156 6.96105 36880 ft 443 kts 132°
2026-04-29 09:20 51.32938 6.99474 37348 ft 436 kts 132°
2026-04-29 09:21 51.30777 7.02751 37658 ft 434 kts 133°
2026-04-29 09:21 51.26377 7.09488 37786 ft 442 kts 133°
2026-04-29 09:21 51.24167 7.12891 38014 ft 441 kts 133°
2026-04-29 09:22 51.21962 7.16286 38255 ft 440 kts 133°
2026-04-29 09:22 51.19759 7.19676 38410 ft 441 kts 133°
2026-04-29 09:22 51.17544 7.23079 38529 ft 443 kts 133°
2026-04-29 09:22 51.15323 7.26487 38690 ft 443 kts 133°
2026-04-29 09:23 51.13104 7.29888 38878 ft 443 kts 133°
2026-04-29 09:23 51.10879 7.33293 39017 ft 444 kts 134°
2026-04-29 09:23 51.08649 7.36702 39161 ft 445 kts 134°
2026-04-29 09:23 51.06415 7.40109 39299 ft 446 kts 134°
2026-04-29 09:24 51.04171 7.43527 39320 ft 448 kts 134°
2026-04-29 09:24 50.99637 7.50422 39336 ft 455 kts 134°
2026-04-29 09:25 50.95034 7.57401 39338 ft 460 kts 134°
2026-04-29 09:25 50.90369 7.64455 39328 ft 466 kts 134°
2026-04-29 09:26 50.85651 7.71564 39318 ft 470 kts 134°
2026-04-29 09:26 50.80892 7.78693 39310 ft 472 kts 135°
2026-04-29 09:27 50.76120 7.85777 39284 ft 467 kts 135°
2026-04-29 09:27 50.71421 7.92732 39287 ft 461 kts 135°
2026-04-29 09:28 50.66739 7.99658 39299 ft 461 kts 135°
2026-04-29 09:28 50.62048 8.06578 39294 ft 462 kts 135°
2026-04-29 09:29 50.57680 8.13886 39306 ft 462 kts 127°
2026-04-29 09:29 50.51751 8.25859 39298 ft 464 kts 126°
2026-04-29 09:30 50.47738 8.33815 39299 ft 466 kts 127°
2026-04-29 09:30 50.43679 8.41747 39291 ft 467 kts 127°
2026-04-29 09:31 50.39599 8.49697 39278 ft 468 kts 127°
2026-04-29 09:31 50.35390 8.57500 39280 ft 470 kts 131°
2026-04-29 09:32 50.30908 8.64953 39280 ft 470 kts 132°
2026-04-29 09:32 50.26393 8.72355 39276 ft 470 kts 132°
2026-04-29 09:33 50.21905 8.79772 39272 ft 470 kts 132°
2026-04-29 09:33 50.17434 8.87191 39272 ft 469 kts 132°
2026-04-29 09:34 50.12973 8.94585 39277 ft 468 kts 132°
2026-04-29 09:34 50.08512 9.01958 39268 ft 467 kts 132°
2026-04-29 09:35 50.04053 9.09300 39271 ft 466 kts 132°
2026-04-29 09:35 49.99598 9.16615 39270 ft 466 kts 132°
2026-04-29 09:36 49.95135 9.23922 39260 ft 467 kts 133°
2026-04-29 09:36 49.90659 9.31235 39273 ft 468 kts 133°
2026-04-29 09:37 49.86171 9.38544 39269 ft 469 kts 133°
2026-04-29 09:37 49.81657 9.45869 39270 ft 471 kts 133°
2026-04-29 09:38 49.77126 9.53206 39260 ft 472 kts 133°
2026-04-29 09:38 49.72604 9.60504 39266 ft 474 kts 133°
2026-04-29 09:39 49.68030 9.67870 39260 ft 476 kts 133°
2026-04-29 09:39 49.63437 9.75243 39245 ft 477 kts 133°
2026-04-29 09:40 49.58836 9.82604 39239 ft 477 kts 134°
2026-04-29 09:40 49.54231 9.89950 39238 ft 476 kts 134°
2026-04-29 09:41 49.49627 9.97275 39240 ft 476 kts 134°
2026-04-29 09:41 49.45027 10.04574 39262 ft 474 kts 134°
2026-04-29 09:42 49.40437 10.11833 39261 ft 473 kts 134°
2026-04-29 09:42 49.35852 10.19066 39262 ft 472 kts 134°
2026-04-29 09:43 49.31268 10.26281 39268 ft 472 kts 134°
2026-04-29 09:43 49.26683 10.33474 39262 ft 471 kts 134°
2026-04-29 09:44 49.21807 10.40145 39252 ft 470 kts 149°
2026-04-29 09:44 49.16189 10.45226 39264 ft 469 kts 151°
2026-04-29 09:45 49.10534 10.50239 39264 ft 471 kts 151°
2026-04-29 09:45 49.04887 10.55327 39258 ft 472 kts 150°
2026-04-29 09:46 48.99244 10.60445 39259 ft 472 kts 150°
2026-04-29 09:46 48.93586 10.65561 39256 ft 473 kts 151°
2026-04-29 09:47 48.87919 10.70671 39249 ft 474 kts 151°
2026-04-29 09:47 48.82306 10.75807 39233 ft 475 kts 146°
2026-04-29 09:48 48.77449 10.82602 39242 ft 477 kts 133°
2026-04-29 09:48 48.73053 10.90149 39227 ft 478 kts 132°
2026-04-29 09:49 48.68646 10.97673 39221 ft 477 kts 133°
2026-04-29 09:49 48.64202 11.05136 39238 ft 477 kts 133°
2026-04-29 09:50 48.59741 11.12564 39223 ft 477 kts 133°
2026-04-29 09:50 48.55277 11.19970 39231 ft 477 kts 133°
2026-04-29 09:51 48.50810 11.27363 39228 ft 476 kts 134°
2026-04-29 09:51 48.46342 11.34741 39235 ft 477 kts 134°
2026-04-29 09:52 48.41868 11.42110 39229 ft 476 kts 134°
2026-04-29 09:52 48.37389 11.49471 39227 ft 477 kts 134°
2026-04-29 09:53 48.32905 11.56813 39220 ft 477 kts 134°
2026-04-29 09:53 48.28413 11.64153 39212 ft 477 kts 134°
2026-04-29 09:54 48.23808 11.71318 39212 ft 477 kts 139°
2026-04-29 09:54 48.18899 11.78000 39214 ft 477 kts 141°
2026-04-29 09:55 48.13945 11.84620 39210 ft 478 kts 140°
2026-04-29 09:55 48.09014 11.91294 39217 ft 478 kts 140°
2026-04-29 09:56 48.04096 11.97997 39214 ft 479 kts 140°
2026-04-29 09:56 47.99171 12.04704 39225 ft 479 kts 140°
2026-04-29 09:57 47.94245 12.11391 39231 ft 479 kts 140°
2026-04-29 09:57 47.89345 12.18021 39228 ft 479 kts 140°
2026-04-29 09:58 47.84401 12.24693 39223 ft 480 kts 140°
2026-04-29 09:58 47.79455 12.31351 39217 ft 480 kts 140°
2026-04-29 09:59 47.74502 12.37993 39227 ft 480 kts 140°
2026-04-29 09:59 47.69544 12.44630 39219 ft 480 kts 140°
2026-04-29 10:00 47.64586 12.51252 39213 ft 479 kts 140°
2026-04-29 10:00 47.59543 12.57693 39210 ft 478 kts 144°
2026-04-29 10:01 47.54323 12.63778 39213 ft 477 kts 145°
2026-04-29 10:01 47.49085 12.69817 39209 ft 477 kts 144°
2026-04-29 10:02 47.43863 12.75889 39208 ft 478 kts 144°
2026-04-29 10:02 47.38646 12.81976 39210 ft 478 kts 144°
2026-04-29 10:03 47.33428 12.88058 39206 ft 479 kts 144°
2026-04-29 10:03 47.28194 12.94140 39210 ft 479 kts 144°
2026-04-29 10:04 47.22954 13.00210 39204 ft 479 kts 144°
2026-04-29 10:04 47.17706 13.06275 39213 ft 480 kts 144°
2026-04-29 10:05 47.12459 13.12321 39221 ft 479 kts 144°
2026-04-29 10:05 47.07251 13.18307 39223 ft 479 kts 145°
2026-04-29 10:06 47.01995 13.24335 39220 ft 480 kts 145°
2026-04-29 10:06 46.96729 13.30356 39206 ft 481 kts 145°
2026-04-29 10:07 46.92307 13.35400 39200 ft 481 kts 145°
2026-04-29 10:07 46.87022 13.41420 39179 ft 481 kts 145°
2026-04-29 10:08 46.81739 13.47422 39194 ft 481 kts 145°
2026-04-29 10:08 46.76457 13.53420 39189 ft 481 kts 144°
2026-04-29 10:09 46.71258 13.59581 39191 ft 482 kts 143°
2026-04-29 10:09 46.66094 13.65792 39193 ft 482 kts 143°
2026-04-29 10:10 46.60948 13.71942 39201 ft 482 kts 143°
2026-04-29 10:10 46.55750 13.78111 39191 ft 482 kts 144°
2026-04-29 10:11 46.50542 13.84266 39198 ft 483 kts 144°
2026-04-29 10:11 46.45278 13.90469 39194 ft 484 kts 144°
2026-04-29 10:12 46.40047 13.96621 39203 ft 484 kts 144°
2026-04-29 10:12 46.34804 14.02767 39198 ft 485 kts 144°
2026-04-29 10:13 46.29588 14.08873 39210 ft 486 kts 144°
2026-04-29 10:13 46.24327 14.15016 39184 ft 487 kts 144°
2026-04-29 10:14 46.19061 14.21146 39210 ft 486 kts 144°
2026-04-29 10:14 46.13786 14.27267 39199 ft 487 kts 144°
2026-04-29 10:15 46.08505 14.33383 39203 ft 487 kts 144°
2026-04-29 10:15 46.03224 14.39485 39207 ft 487 kts 144°
2026-04-29 10:16 45.97937 14.45576 39197 ft 487 kts 144°
2026-04-29 10:16 45.92645 14.51651 39169 ft 487 kts 144°
2026-04-29 10:17 45.87376 14.57731 39172 ft 486 kts 144°
2026-04-29 10:17 45.82097 14.63753 39205 ft 485 kts 145°
2026-04-29 10:18 45.76815 14.69767 39185 ft 485 kts 145°
2026-04-29 10:18 45.71547 14.75763 39178 ft 482 kts 145°
2026-04-29 10:19 45.66331 14.81686 39162 ft 476 kts 145°
2026-04-29 10:19 45.61163 14.87538 39169 ft 472 kts 145°
2026-04-29 10:20 45.56022 14.93347 39168 ft 472 kts 145°
2026-04-29 10:20 45.50837 14.99195 39172 ft 479 kts 145°
2026-04-29 10:21 45.45629 15.05208 39168 ft 484 kts 143°
2026-04-29 10:21 45.40479 15.11424 39157 ft 486 kts 142°
2026-04-29 10:22 45.35311 15.17662 39162 ft 487 kts 143°
2026-04-29 10:22 45.30128 15.23868 39152 ft 487 kts 143°
2026-04-29 10:23 45.24947 15.30036 39158 ft 485 kts 143°
2026-04-29 10:23 45.19779 15.36161 39146 ft 483 kts 143°
2026-04-29 10:24 45.14630 15.42250 39142 ft 481 kts 143°
2026-04-29 10:24 45.09495 15.48312 39142 ft 479 kts 143°
2026-04-29 10:25 45.04381 15.54340 39130 ft 478 kts 143°
2026-04-29 10:25 44.99289 15.60324 39180 ft 475 kts 143°
2026-04-29 10:26 44.94245 15.66236 39177 ft 474 kts 143°
2026-04-29 10:26 44.89129 15.72222 39171 ft 475 kts 143°
2026-04-29 10:27 44.81508 15.81105 39163 ft 477 kts 144°
2026-04-29 10:28 44.76383 15.87063 39158 ft 478 kts 144°
2026-04-29 10:28 44.71247 15.93023 39151 ft 479 kts 144°
2026-04-29 10:29 44.65956 15.98684 39135 ft 475 kts 154°
2026-04-29 10:29 44.60194 16.03254 38731 ft 481 kts 156°
2026-04-29 10:29 44.57261 16.05509 38229 ft 480 kts 156°
2026-04-29 10:30 44.54345 16.07769 37693 ft 478 kts 155°
2026-04-29 10:30 44.51445 16.10040 37141 ft 478 kts 155°
2026-04-29 10:30 44.48556 16.12322 36711 ft 474 kts 155°
2026-04-29 10:30 44.45704 16.14586 36305 ft 469 kts 155°
2026-04-29 10:31 44.42873 16.16837 35890 ft 466 kts 155°
2026-04-29 10:31 44.40063 16.19069 35466 ft 463 kts 155°
2026-04-29 10:31 44.37276 16.21279 35061 ft 459 kts 155°
2026-04-29 10:31 44.34504 16.23474 34646 ft 456 kts 155°
2026-04-29 10:32 44.31752 16.25648 34246 ft 453 kts 155°
2026-04-29 10:32 44.29020 16.27803 33830 ft 449 kts 155°
2026-04-29 10:32 44.26308 16.29941 33424 ft 446 kts 155°
2026-04-29 10:32 44.23613 16.32063 33027 ft 443 kts 155°
2026-04-29 10:33 44.20937 16.34167 32641 ft 440 kts 155°
2026-04-29 10:33 44.18282 16.36253 32249 ft 437 kts 155°
2026-04-29 10:33 44.15644 16.38324 31859 ft 434 kts 155°
2026-04-29 10:33 44.13022 16.40380 31460 ft 431 kts 155°
2026-04-29 10:34 44.10420 16.42419 31072 ft 427 kts 155°
2026-04-29 10:34 44.07844 16.44447 30685 ft 424 kts 155°
2026-04-29 10:34 44.05278 16.46429 30304 ft 421 kts 155°
2026-04-29 10:34 44.02733 16.48408 29923 ft 418 kts 156°
2026-04-29 10:35 44.00160 16.50269 29525 ft 415 kts 158°
2026-04-29 10:35 43.97571 16.52019 29127 ft 412 kts 159°
2026-04-29 10:35 43.94989 16.53721 28731 ft 409 kts 159°
2026-04-29 10:35 43.92422 16.55406 28342 ft 407 kts 159°
2026-04-29 10:36 43.89875 16.57085 27951 ft 404 kts 158°
2026-04-29 10:36 43.87344 16.58761 27567 ft 402 kts 158°
2026-04-29 10:36 43.84829 16.60435 27173 ft 399 kts 158°
2026-04-29 10:36 43.82337 16.62096 26803 ft 397 kts 158°
2026-04-29 10:37 43.79895 16.63726 26400 ft 394 kts 158°
2026-04-29 10:37 43.77434 16.65369 26031 ft 391 kts 158°
2026-04-29 10:37 43.74992 16.66997 25662 ft 389 kts 158°
2026-04-29 10:37 43.72564 16.68615 25282 ft 387 kts 158°
2026-04-29 10:38 43.70149 16.70222 24901 ft 384 kts 158°
2026-04-29 10:38 43.67749 16.71818 24527 ft 381 kts 158°
2026-04-29 10:38 43.65367 16.73400 24164 ft 379 kts 158°
2026-04-29 10:38 43.62999 16.74972 23795 ft 376 kts 158°
2026-04-29 10:39 43.60648 16.76533 23434 ft 374 kts 158°
2026-04-29 10:39 43.58310 16.78083 23070 ft 372 kts 158°
2026-04-29 10:39 43.55990 16.79620 22708 ft 369 kts 158°
2026-04-29 10:39 43.53682 16.81151 22344 ft 367 kts 158°
2026-04-29 10:40 43.51387 16.82669 21988 ft 365 kts 158°
2026-04-29 10:40 43.49103 16.84176 21623 ft 363 kts 158°
2026-04-29 10:40 43.46830 16.85675 21260 ft 362 kts 158°
2026-04-29 10:40 43.44568 16.87166 20889 ft 360 kts 158°
2026-04-29 10:41 43.42315 16.88649 20534 ft 358 kts 158°
2026-04-29 10:41 43.40076 16.90123 20177 ft 356 kts 158°
2026-04-29 10:41 43.37853 16.91584 19826 ft 354 kts 158°
2026-04-29 10:41 43.35665 16.93022 19463 ft 352 kts 158°
2026-04-29 10:42 43.33460 16.94471 19105 ft 351 kts 158°
2026-04-29 10:42 43.31264 16.95913 18753 ft 349 kts 158°
2026-04-29 10:42 43.29076 16.97347 18401 ft 347 kts 158°
2026-04-29 10:42 43.26902 16.98770 18050 ft 346 kts 158°
2026-04-29 10:43 43.24733 17.00191 17705 ft 344 kts 158°
2026-04-29 10:43 43.22576 17.01603 17353 ft 343 kts 158°
2026-04-29 10:43 43.20432 17.03005 17006 ft 341 kts 158°
2026-04-29 10:43 43.18299 17.04399 16660 ft 339 kts 158°
2026-04-29 10:44 43.16183 17.05775 16323 ft 335 kts 158°
2026-04-29 10:44 43.14131 17.07267 15962 ft 336 kts 146°
2026-04-29 10:44 43.12528 17.09600 15651 ft 338 kts 126°
2026-04-29 10:44 43.11216 17.12255 15322 ft 336 kts 126°
2026-04-29 10:45 43.09870 17.14882 14927 ft 337 kts 127°
2026-04-29 10:45 43.08501 17.17474 14580 ft 335 kts 127°
2026-04-29 10:45 43.07135 17.20057 14232 ft 335 kts 127°
2026-04-29 10:45 43.05779 17.22630 13896 ft 332 kts 127°
2026-04-29 10:46 43.04431 17.25190 13549 ft 330 kts 127°
2026-04-29 10:46 43.03096 17.27734 13219 ft 328 kts 127°
2026-04-29 10:46 43.01790 17.30222 12883 ft 325 kts 127°
2026-04-29 10:46 43.00458 17.32760 12545 ft 323 kts 127°
2026-04-29 10:47 42.99171 17.35212 12216 ft 321 kts 127°
2026-04-29 10:47 42.97877 17.37674 11882 ft 318 kts 127°
2026-04-29 10:47 42.96588 17.40125 11553 ft 316 kts 127°
2026-04-29 10:47 42.95310 17.42553 11223 ft 314 kts 127°
2026-04-29 10:48 42.94040 17.44964 10900 ft 312 kts 127°
2026-04-29 10:48 42.92779 17.47357 10561 ft 310 kts 127°
2026-04-29 10:48 42.91521 17.49742 10146 ft 310 kts 127°
2026-04-29 10:48 42.90265 17.52122 9807 ft 308 kts 127°
2026-04-29 10:49 42.89018 17.54483 9489 ft 305 kts 127°
2026-04-29 10:49 42.87784 17.56816 9172 ft 302 kts 127°
2026-04-29 10:49 42.86554 17.59142 8824 ft 302 kts 126°
2026-04-29 10:49 42.85332 17.61451 8511 ft 300 kts 126°
2026-04-29 10:50 42.84115 17.63749 8202 ft 298 kts 127°
2026-04-29 10:50 42.82903 17.66032 7882 ft 297 kts 127°
2026-04-29 10:50 42.81704 17.68289 7538 ft 291 kts 126°
2026-04-29 10:50 42.80535 17.70492 7222 ft 283 kts 127°
2026-04-29 10:51 42.79387 17.72654 6947 ft 280 kts 126°
2026-04-29 10:51 42.78247 17.74800 6627 ft 279 kts 126°
2026-04-29 10:51 42.77109 17.76937 6314 ft 278 kts 126°
2026-04-29 10:51 42.75976 17.79066 6015 ft 277 kts 126°
2026-04-29 10:52 42.74853 17.81176 5730 ft 274 kts 126°
2026-04-29 10:52 42.73739 17.83265 5421 ft 272 kts 127°
2026-04-29 10:52 42.72639 17.85352 5111 ft 271 kts 124°
2026-04-29 10:52 42.71671 17.87537 4885 ft 268 kts 120°
2026-04-29 10:53 42.70778 17.89740 4701 ft 263 kts 119°
2026-04-29 10:53 42.69921 17.91906 4502 ft 258 kts 119°
2026-04-29 10:53 42.69098 17.94051 4298 ft 254 kts 117°
2026-04-29 10:53 42.68568 17.95450 4198 ft 250 kts 118°
2026-04-29 10:54 42.67761 17.97523 4026 ft 246 kts 118°
2026-04-29 10:54 42.66958 17.99553 3874 ft 241 kts 119°
2026-04-29 10:54 42.66181 18.01505 3817 ft 227 kts 119°
2026-04-29 10:54 42.65457 18.03320 3783 ft 209 kts 119°
2026-04-29 10:55 42.64578 18.05528 3650 ft 194 kts 119°
2026-04-29 10:55 42.64147 18.06615 3467 ft 193 kts 119°
2026-04-29 10:55 42.63517 18.08198 3240 ft 189 kts 119°
2026-04-29 10:55 42.62898 18.09757 2989 ft 186 kts 119°
2026-04-29 10:56 42.62292 18.11287 2741 ft 182 kts 119°
2026-04-29 10:56 42.61694 18.12791 2497 ft 179 kts 119°
2026-04-29 10:56 42.61122 18.14236 2269 ft 168 kts 120°
2026-04-29 10:56 42.60590 18.15580 2048 ft 156 kts 120°
2026-04-29 10:57 42.60104 18.16804 1847 ft 142 kts 121°
2026-04-29 10:57 42.59648 18.17955 1664 ft 138 kts 121°
2026-04-29 10:57 42.59188 18.19103 1452 ft 140 kts 121°
2026-04-29 10:57 42.58728 18.20265 1269 ft 140 kts 121°
2026-04-29 10:58 42.58286 18.21447 1079 ft 140 kts 122°
2026-04-29 10:58 42.57819 18.22590 943 ft 138 kts 122°
2026-04-29 10:58 42.57367 18.23715 741 ft 138 kts 121°
2026-04-29 10:58 42.56915 18.24860 568 ft 138 kts 120°
2026-04-29 10:59 42.56490 18.25928 535 ft 108 kts 118°
2026-04-29 10:59 42.56237 18.26568 533 ft 46 kts 118°
2026-04-29 10:59 42.56141 18.26814 533 ft 26 kts 118°
2026-04-29 10:59 42.56059 18.27020 533 ft 24 kts 118°
2026-04-29 11:00 42.55983 18.27212 532 ft 23 kts 118°
2026-04-29 11:00 42.55865 18.27332 531 ft 21 kts 171°
2026-04-29 11:00 42.55781 18.27249 533 ft 20 kts 291°
2026-04-29 11:00 42.55845 18.27086 533 ft 19 kts 298°
2026-04-29 11:01 42.55908 18.26927 533 ft 19 kts 299°
2026-04-29 11:01 42.55969 18.26775 533 ft 18 kts 298°
2026-04-29 11:01 42.56027 18.26627 533 ft 17 kts 298°
2026-04-29 11:01 42.56085 18.26486 533 ft 17 kts 298°
2026-04-29 11:02 42.56129 18.26371 533 ft 5 kts 297°
2026-04-29 11:02 42.56124 18.26330 533 ft 5 kts 227°
2026-04-29 11:02 42.56099 18.26310 533 ft 3 kts 208°
2026-04-29 11:02 42.56092 18.26305 533 ft 0 kts 208°